Time,TemperatureF,DewpointF,PressureIn,WindDirection,WindDirectionDegrees,WindSpeedMPH,WindSpeedGustMPH,Humidity,HourlyPrecipIn,Conditions,Clouds,dailyrainin,SoftwareType,DateUTC
2013-12-06 00:01:00,-6.5,-12.1,30.48,WNW,282,5.8,6.9,76,0.00,CLR,,0.00,WeatherDisplay:10.37,2013-12-06 06:01:00,
2013-12-06 00:06:00,-6.5,-12.1,30.48,West,281,6.3,6.3,76,0.00,CLR,,0.00,WeatherDisplay:10.37,2013-12-06 06:06:00,
2013-12-06 00:11:00,-6.5,-12.1,30.48,West,280,6.3,9.2,76,0.00,CLR,,0.00,WeatherDisplay:10.37,2013-12-06 06:11:00,
2013-12-06 00:16:00,-6.6,-12.2,30.48,WNW,283,7.3,8.1,76,0.00,CLR,,0.00,WeatherDisplay:10.37,2013-12-06 06:16:00,
2013-12-06 00:21:00,-6.5,-12.1,30.48,WNW,288,6.6,9.2,76,0.00,CLR,,0.00,WeatherDisplay:10.37,2013-12-06 06:21:00,
2013-12-06 00:27:00,-6.5,-12.1,30.48,WNW,288,5.1,6.9,76,0.00,CLR,,0.00,WeatherDisplay:10.37,2013-12-06 06:27:00,
2013-12-06 00:32:00,-6.8,-12.4,30.48,WNW,286,5.5,6.9,76,0.00,CLR,,0.00,WeatherDisplay:10.37,2013-12-06 06:32:00,
2013-12-06 00:37:00,-7.1,-12.7,30.48,WNW,283,5.8,6.9,76,0.00,CLR,,0.00,WeatherDisplay:10.37,2013-12-06 06:37:00,
2013-12-06 00:42:00,-7.4,-13.0,30.48,WNW,284,4.5,6.9,76,0.00,CLR,,0.00,WeatherDisplay:10.37,2013-12-06 06:42:00,
2013-12-06 00:47:00,-7.7,-13.3,30.48,WNW,284,3.2,3.5,76,0.00,CLR,,0.00,WeatherDisplay:10.37,2013-12-06 06:47:00,
2013-12-06 00:52:00,-7.9,-13.5,30.48,WNW,284,3.2,4.6,76,0.00,CLR,,0.00,WeatherDisplay:10.37,2013-12-06 06:52:00,
2013-12-06 00:57:00,-8.1,-13.6,30.49,WNW,284,4.5,4.6,76,0.00,CLR,,0.00,WeatherDisplay:10.37,2013-12-06 06:57:00,
2013-12-06 01:02:00,-8.2,-13.7,30.49,WNW,284,3.9,4.6,76,0.00,CLR,,0.00,WeatherDisplay:10.37,2013-12-06 07:02:00,
2013-12-06 01:07:00,-8.4,-13.9,30.48,WNW,284,5.2,6.9,76,0.00,CLR,,0.00,WeatherDisplay:10.37,2013-12-06 07:07:00,
2013-12-06 01:12:00,-8.4,-13.7,30.49,WNW,284,4.8,6.9,77,0.00,CLR,,0.00,WeatherDisplay:10.37,2013-12-06 07:12:00,
2013-12-06 01:17:00,-8.5,-13.8,30.49,WNW,283,5.7,6.9,77,0.00,CLR,,0.00,WeatherDisplay:10.37,2013-12-06 07:17:00,
2013-12-06 01:22:00,-8.6,-13.9,30.48,West,281,6.0,9.0,77,0.00,CLR,,0.00,WeatherDisplay:10.37,2013-12-06 07:22:00,
2013-12-06 01:27:00,-8.4,-13.7,30.48,West,275,6.8,8.1,77,0.00,CLR,,0.00,WeatherDisplay:10.37,2013-12-06 07:27:00,
2013-12-06 01:32:00,-8.4,-13.7,30.48,WNW,288,6.2,6.9,77,0.00,CLR,,0.00,WeatherDisplay:10.37,2013-12-06 07:32:00,
2013-12-06 01:37:00,-8.3,-13.6,30.48,West,281,7.2,9.2,77,0.00,CLR,,0.00,WeatherDisplay:10.37,2013-12-06 07:37:00,
2013-12-06 01:42:00,-8.1,-13.4,30.48,West,277,6.7,6.9,77,0.00,CLR,,0.00,WeatherDisplay:10.37,2013-12-06 07:42:00,
2013-12-06 01:47:00,-7.9,-13.2,30.48,West,273,6.9,10.4,77,0.00,CLR,,0.00,WeatherDisplay:10.37,2013-12-06 07:47:00,
2013-12-06 01:52:00,-7.9,-13.2,30.48,West,275,6.5,9.2,77,0.00,CLR,,0.00,WeatherDisplay:10.37,2013-12-06 07:52:00,
2013-12-06 01:57:00,-7.9,-13.2,30.48,WNW,288,5.9,10.4,77,0.00,CLR,,0.00,WeatherDisplay:10.37,2013-12-06 07:57:00,
2013-12-06 02:02:00,-8.0,-13.5,30.48,WNW,287,4.0,4.0,76,0.00,CLR,,0.00,WeatherDisplay:10.37,2013-12-06 08:02:00,
2013-12-06 02:07:00,-8.2,-13.7,30.48,WNW,302,5.1,6.9,76,0.00,CLR,,0.00,WeatherDisplay:10.37,2013-12-06 08:07:00,
2013-12-06 02:12:00,-8.3,-13.8,30.48,WNW,287,5.4,6.0,76,0.00,CLR,,0.00,WeatherDisplay:10.37,2013-12-06 08:12:00,
2013-12-06 02:17:00,-8.2,-13.7,30.48,WNW,297,3.0,4.6,76,0.00,CLR,,0.00,WeatherDisplay:10.37,2013-12-06 08:17:00,
2013-12-06 02:22:00,-8.5,-14.0,30.49,WNW,298,5.2,5.8,76,0.00,CLR,,0.00,WeatherDisplay:10.37,2013-12-06 08:22:00,
2013-12-06 02:27:00,-8.6,-14.1,30.49,WNW,298,3.8,5.8,76,0.00,CLR,,0.00,WeatherDisplay:10.37,2013-12-06 08:27:00,
2013-12-06 02:32:00,-8.8,-14.3,30.49,WNW,298,3.5,4.0,76,0.00,CLR,,0.00,WeatherDisplay:10.37,2013-12-06 08:32:00,
2013-12-06 02:37:00,-8.9,-14.4,30.49,WNW,291,5.6,6.9,76,0.00,CLR,,0.00,WeatherDisplay:10.37,2013-12-06 08:37:00,
2013-12-06 02:42:00,-9.0,-14.5,30.48,WNW,290,5.1,7.0,76,0.00,CLR,,0.00,WeatherDisplay:10.37,2013-12-06 08:42:00,
2013-12-06 02:47:00,-8.9,-14.4,30.49,WNW,294,4.4,5.8,76,0.00,CLR,,0.00,WeatherDisplay:10.37,2013-12-06 08:47:00,
2013-12-06 02:52:00,-8.9,-14.4,30.49,WNW,296,5.2,5.8,76,0.00,CLR,,0.00,WeatherDisplay:10.37,2013-12-06 08:52:00,
2013-12-06 02:57:00,-8.9,-14.4,30.49,WNW,300,4.9,6.9,76,0.00,CLR,,0.00,WeatherDisplay:10.37,2013-12-06 08:57:00,
2013-12-06 03:02:00,-9.0,-14.5,30.49,WNW,300,4.2,6.0,76,0.00,CLR,,0.00,WeatherDisplay:10.37,2013-12-06 09:02:00,
2013-12-06 03:07:00,-9.3,-14.8,30.49,WNW,300,3.9,4.6,76,0.00,CLR,,0.00,WeatherDisplay:10.37,2013-12-06 09:07:00,
2013-12-06 03:12:00,-9.3,-14.8,30.50,WNW,300,3.8,4.6,76,0.00,CLR,,0.00,WeatherDisplay:10.37,2013-12-06 09:12:00,
2013-12-06 03:17:00,-9.5,-15.0,30.50,WNW,300,4.5,5.8,76,0.00,CLR,,0.00,WeatherDisplay:10.37,2013-12-06 09:17:00,
2013-12-06 03:22:00,-9.5,-15.0,30.50,WNW,300,4.8,6.0,76,0.00,CLR,,0.00,WeatherDisplay:10.37,2013-12-06 09:22:00,
2013-12-06 03:27:00,-9.6,-15.1,30.51,WNW,300,4.9,6.9,76,0.00,CLR,,0.00,WeatherDisplay:10.37,2013-12-06 09:27:00,
2013-12-06 03:32:00,-9.6,-15.1,30.51,WNW,300,5.0,5.8,76,0.00,CLR,,0.00,WeatherDisplay:10.37,2013-12-06 09:32:00,
2013-12-06 03:37:00,-9.6,-15.1,30.51,WNW,301,2.4,4.6,76,0.00,CLR,,0.00,WeatherDisplay:10.37,2013-12-06 09:37:00,
2013-12-06 03:42:00,-9.7,-15.2,30.51,WNW,301,2.4,3.5,76,0.00,CLR,,0.00,WeatherDisplay:10.37,2013-12-06 09:42:00,
2013-12-06 03:47:00,-9.7,-15.2,30.51,WNW,301,3.4,4.6,76,0.00,CLR,,0.00,WeatherDisplay:10.37,2013-12-06 09:47:00,
2013-12-06 03:52:00,-9.8,-15.3,30.51,WNW,300,2.3,3.5,76,0.00,CLR,,0.00,WeatherDisplay:10.37,2013-12-06 09:52:00,
2013-12-06 03:57:00,-10.0,-15.5,30.51,WNW,300,4.1,5.8,76,0.00,CLR,,0.00,WeatherDisplay:10.37,2013-12-06 09:57:00,
2013-12-06 04:02:00,-10.2,-15.7,30.51,WNW,301,4.1,4.6,76,0.00,CLR,,0.00,WeatherDisplay:10.37,2013-12-06 10:02:00,
2013-12-06 04:07:00,-10.4,-15.9,30.52,WNW,301,3.0,4.0,76,0.00,CLR,,0.00,WeatherDisplay:10.37,2013-12-06 10:07:00,
2013-12-06 04:12:00,-10.4,-15.9,30.52,WNW,302,2.5,4.6,76,0.00,CLR,,0.00,WeatherDisplay:10.37,2013-12-06 10:12:00,
2013-12-06 04:17:00,-10.4,-15.9,30.52,WNW,301,2.7,3.5,76,0.00,CLR,,0.00,WeatherDisplay:10.37,2013-12-06 10:17:00,
2013-12-06 04:22:00,-10.5,-16.0,30.52,WNW,301,2.7,3.5,76,0.00,CLR,,0.00,WeatherDisplay:10.37,2013-12-06 10:22:00,
2013-12-06 04:27:00,-10.6,-16.1,30.53,WNW,300,3.7,4.6,76,0.00,CLR,,0.00,WeatherDisplay:10.37,2013-12-06 10:27:00,
2013-12-06 04:32:00,-10.5,-16.0,30.53,WNW,301,3.3,3.5,76,0.00,CLR,,0.00,WeatherDisplay:10.37,2013-12-06 10:32:00,
2013-12-06 04:37:00,-10.6,-16.1,30.54,WNW,301,3.4,5.0,76,0.00,CLR,,0.00,WeatherDisplay:10.37,2013-12-06 10:37:00,
2013-12-06 04:42:00,-10.7,-16.2,30.54,WNW,300,3.3,4.6,76,0.00,CLR,,0.00,WeatherDisplay:10.37,2013-12-06 10:42:00,
2013-12-06 04:47:00,-10.8,-16.3,30.54,WNW,301,3.7,4.0,76,0.00,CLR,,0.00,WeatherDisplay:10.37,2013-12-06 10:47:00,
2013-12-06 04:52:00,-11.1,-16.6,30.54,WNW,301,4.2,5.0,76,0.00,CLR,,0.00,WeatherDisplay:10.37,2013-12-06 10:52:00,
2013-12-06 04:57:00,-11.2,-16.7,30.54,WNW,300,3.8,5.0,76,0.00,CLR,,0.00,WeatherDisplay:10.37,2013-12-06 10:57:00,
2013-12-06 05:02:00,-11.3,-16.8,30.54,WNW,301,4.0,5.0,76,0.00,CLR,,0.00,WeatherDisplay:10.37,2013-12-06 11:02:00,
2013-12-06 05:07:00,-11.5,-17.0,30.54,WNW,301,4.2,4.6,76,0.00,CLR,,0.00,WeatherDisplay:10.37,2013-12-06 11:07:00,
2013-12-06 05:12:00,-11.6,-17.0,30.55,WNW,301,3.4,4.6,76,0.00,CLR,,0.00,WeatherDisplay:10.37,2013-12-06 11:12:00,
2013-12-06 05:17:00,-11.6,-17.0,30.55,WNW,300,3.3,3.5,76,0.00,CLR,,0.00,WeatherDisplay:10.37,2013-12-06 11:17:00,
2013-12-06 05:22:00,-11.9,-17.3,30.55,WNW,301,1.4,3.5,76,0.00,CLR,,0.00,WeatherDisplay:10.37,2013-12-06 11:22:00,
2013-12-06 05:27:00,-12.0,-17.4,30.55,WNW,301,2.1,3.5,76,0.00,CLR,,0.00,WeatherDisplay:10.37,2013-12-06 11:27:00,
2013-12-06 05:32:00,-12.0,-17.2,30.56,WNW,300,2.4,3.5,77,0.00,CLR,,0.00,WeatherDisplay:10.37,2013-12-06 11:32:00,
2013-12-06 05:37:00,-12.0,-17.2,30.56,WNW,301,1.8,3.5,77,0.00,CLR,,0.00,WeatherDisplay:10.37,2013-12-06 11:37:00,
2013-12-06 05:42:00,-12.0,-17.2,30.56,WNW,301,1.2,2.3,77,0.00,CLR,,0.00,WeatherDisplay:10.37,2013-12-06 11:42:00,
2013-12-06 05:47:00,-12.0,-17.2,30.57,WNW,300,2.2,3.5,77,0.00,CLR,,0.00,WeatherDisplay:10.37,2013-12-06 11:47:00,
2013-12-06 05:52:00,-12.2,-17.6,30.57,WNW,301,3.5,3.5,76,0.00,CLR,,0.00,WeatherDisplay:10.37,2013-12-06 11:52:00,
2013-12-06 05:57:00,-12.3,-17.5,30.57,WNW,300,6.3,8.0,77,0.00,CLR,,0.00,WeatherDisplay:10.37,2013-12-06 11:57:00,
2013-12-06 06:02:00,-12.3,-17.5,30.57,WNW,299,5.0,6.9,77,0.00,CLR,,0.00,WeatherDisplay:10.37,2013-12-06 12:02:00,
2013-12-06 06:07:00,-12.2,-17.4,30.57,WNW,299,3.5,4.6,77,0.00,CLR,,0.00,WeatherDisplay:10.37,2013-12-06 12:07:00,
2013-12-06 06:12:00,-12.4,-17.6,30.57,WNW,299,3.6,5.8,77,0.00,CLR,,0.00,WeatherDisplay:10.37,2013-12-06 12:12:00,
2013-12-06 06:17:00,-12.5,-17.7,30.57,WNW,299,4.9,6.0,77,0.00,CLR,,0.00,WeatherDisplay:10.37,2013-12-06 12:17:00,
2013-12-06 06:22:00,-12.8,-18.2,30.58,WNW,299,5.1,6.9,76,0.00,CLR,,0.00,WeatherDisplay:10.37,2013-12-06 12:22:00,
2013-12-06 06:27:00,-12.8,-18.0,30.58,WNW,299,3.4,5.8,77,0.00,CLR,,0.00,WeatherDisplay:10.37,2013-12-06 12:27:00,
2013-12-06 06:32:00,-12.8,-18.0,30.58,WNW,299,4.8,7.0,77,0.00,CLR,,0.00,WeatherDisplay:10.37,2013-12-06 12:32:00,
2013-12-06 06:37:00,-12.7,-17.9,30.58,WNW,299,5.3,6.0,77,0.00,CLR,,0.00,WeatherDisplay:10.37,2013-12-06 12:37:00,
2013-12-06 06:42:00,-12.7,-17.9,30.58,West,271,5.8,9.2,77,0.00,CLR,,0.00,WeatherDisplay:10.37,2013-12-06 12:42:00,
2013-12-06 06:47:00,-12.6,-17.8,30.58,West,269,5.9,9.2,77,0.00,CLR,,0.00,WeatherDisplay:10.37,2013-12-06 12:47:00,
2013-12-06 06:52:00,-12.5,-17.7,30.58,West,269,6.1,8.1,77,0.00,CLR,,0.00,WeatherDisplay:10.37,2013-12-06 12:52:00,
2013-12-06 06:57:00,-12.5,-17.7,30.58,West,275,5.9,9.2,77,0.00,CLR,,0.00,WeatherDisplay:10.37,2013-12-06 12:57:00,
2013-12-06 07:02:00,-12.5,-17.7,30.58,WNW,287,5.9,7.0,77,0.00,CLR,,0.00,WeatherDisplay:10.37,2013-12-06 13:02:00,
2013-12-06 07:07:00,-12.5,-17.7,30.58,WNW,292,5.3,8.1,77,0.00,CLR,,0.00,WeatherDisplay:10.37,2013-12-06 13:07:00,
2013-12-06 07:12:00,-12.6,-17.8,30.59,West,273,6.1,8.1,77,0.00,CLR,,0.00,WeatherDisplay:10.37,2013-12-06 13:12:00,
2013-12-06 07:17:00,-12.7,-17.9,30.59,West,276,6.0,9.2,77,0.00,CLR,,0.00,WeatherDisplay:10.37,2013-12-06 13:17:00,
2013-12-06 07:22:00,-12.8,-18.2,30.59,West,276,5.9,8.1,76,0.00,CLR,,0.00,WeatherDisplay:10.37,2013-12-06 13:22:00,
2013-12-06 07:27:00,-12.9,-18.3,30.59,West,271,6.2,8.1,76,0.00,CLR,,0.00,WeatherDisplay:10.37,2013-12-06 13:27:00,
2013-12-06 07:32:00,-13.0,-18.4,30.59,West,272,4.9,6.9,76,0.00,CLR,,0.00,WeatherDisplay:10.37,2013-12-06 13:32:00,
2013-12-06 07:37:00,-13.1,-18.5,30.59,West,275,5.5,8.1,76,0.00,CLR,,0.00,WeatherDisplay:10.37,2013-12-06 13:37:00,
2013-12-06 07:42:00,-13.1,-18.5,30.60,WNW,284,5.7,7.0,76,0.00,CLR,,0.00,WeatherDisplay:10.37,2013-12-06 13:42:00,
2013-12-06 07:47:00,-13.2,-18.6,30.60,West,280,5.3,6.9,76,0.00,CLR,,0.00,WeatherDisplay:10.37,2013-12-06 13:47:00,
2013-12-06 07:52:00,-13.1,-18.5,30.60,West,280,5.2,6.0,76,0.00,CLR,,0.00,WeatherDisplay:10.37,2013-12-06 13:52:00,
2013-12-06 07:57:00,-13.0,-18.4,30.60,West,280,5.7,7.0,76,0.00,CLR,,0.00,WeatherDisplay:10.37,2013-12-06 13:57:00,
2013-12-06 08:02:00,-12.8,-18.0,30.60,West,280,4.5,5.8,77,0.00,CLR,,0.00,WeatherDisplay:10.37,2013-12-06 14:02:00,
2013-12-06 08:07:00,-12.5,-17.7,30.61,West,280,5.4,6.9,77,0.00,CLR,,0.00,WeatherDisplay:10.37,2013-12-06 14:07:00,
2013-12-06 08:12:00,-12.2,-17.4,30.61,West,280,6.0,8.1,77,0.00,CLR,,0.00,WeatherDisplay:10.37,2013-12-06 14:12:00,
2013-12-06 08:17:00,-11.8,-17.0,30.61,West,280,5.5,7.0,77,0.00,CLR,,0.00,WeatherDisplay:10.37,2013-12-06 14:17:00,
2013-12-06 08:22:00,-11.5,-16.7,30.62,West,279,5.6,6.9,77,0.00,CLR,,0.00,WeatherDisplay:10.37,2013-12-06 14:22:00,
2013-12-06 08:27:00,-11.2,-16.4,30.62,West,281,5.8,6.9,77,0.00,CLR,,0.00,WeatherDisplay:10.37,2013-12-06 14:27:00,
2013-12-06 08:32:00,-11.1,-16.3,30.62,WNW,286,6.5,9.2,77,0.00,CLR,,0.00,WeatherDisplay:10.37,2013-12-06 14:32:00,
2013-12-06 08:37:00,-10.9,-16.1,30.62,WNW,282,6.9,9.2,77,0.00,CLR,,0.00,WeatherDisplay:10.37,2013-12-06 14:37:00,
2013-12-06 08:42:00,-10.8,-16.3,30.62,WNW,290,7.4,9.2,76,0.00,CLR,,0.00,WeatherDisplay:10.37,2013-12-06 14:42:00,
2013-12-06 08:47:00,-10.6,-15.8,30.62,WNW,300,6.6,9.2,77,0.00,CLR,,0.00,WeatherDisplay:10.37,2013-12-06 14:47:00,
2013-12-06 08:52:00,-10.3,-15.5,30.62,WNW,282,6.2,8.1,77,0.00,CLR,,0.00,WeatherDisplay:10.37,2013-12-06 14:52:00,
2013-12-06 08:57:00,-10.2,-15.4,30.62,WNW,286,7.1,9.2,77,0.00,CLR,,0.00,WeatherDisplay:10.37,2013-12-06 14:57:00,
2013-12-06 09:02:00,-9.9,-15.1,30.62,WNW,287,5.3,8.1,77,0.00,CLR,,0.00,WeatherDisplay:10.37,2013-12-06 15:02:00,
2013-12-06 09:07:00,-9.7,-14.9,30.63,WNW,287,7.9,10.4,77,0.00,CLR,,0.00,WeatherDisplay:10.37,2013-12-06 15:07:00,
2013-12-06 09:12:00,-9.4,-14.7,30.63,West,281,7.4,8.1,77,0.00,CLR,,0.00,WeatherDisplay:10.37,2013-12-06 15:12:00,
2013-12-06 09:17:00,-9.1,-14.4,30.63,WNW,284,7.0,10.0,77,0.00,CLR,,0.00,WeatherDisplay:10.37,2013-12-06 15:17:00,
2013-12-06 09:22:00,-8.7,-14.0,30.63,WNW,301,6.2,10.4,77,0.00,CLR,,0.00,WeatherDisplay:10.37,2013-12-06 15:22:00,
2013-12-06 09:27:00,-8.4,-13.7,30.64,West,280,7.0,9.2,77,0.00,CLR,,0.00,WeatherDisplay:10.37,2013-12-06 15:27:00,
2013-12-06 09:32:00,-8.3,-13.6,30.64,WNW,287,7.3,9.2,77,0.00,CLR,,0.00,WeatherDisplay:10.37,2013-12-06 15:32:00,
2013-12-06 09:37:00,-8.1,-13.6,30.64,West,278,6.8,9.2,76,0.00,CLR,,0.00,WeatherDisplay:10.37,2013-12-06 15:37:00,
2013-12-06 09:42:00,-7.7,-13.0,30.64,WNW,290,7.0,10.4,77,0.00,CLR,,0.00,WeatherDisplay:10.37,2013-12-06 15:42:00,
2013-12-06 09:47:00,-7.5,-13.1,30.64,WNW,292,7.9,10.4,76,0.00,CLR,,0.00,WeatherDisplay:10.37,2013-12-06 15:47:00,
2013-12-06 09:52:00,-7.4,-13.0,30.64,West,279,8.6,11.5,76,0.00,CLR,,0.00,WeatherDisplay:10.37,2013-12-06 15:52:00,
2013-12-06 09:57:00,-7.1,-12.7,30.65,WNW,302,8.5,10.4,76,0.00,CLR,,0.00,WeatherDisplay:10.37,2013-12-06 15:57:00,
2013-12-06 10:02:00,-6.9,-12.5,30.65,West,277,8.9,10.4,76,0.00,CLR,,0.00,WeatherDisplay:10.37,2013-12-06 16:02:00,
2013-12-06 10:07:00,-6.5,-11.8,30.65,WNW,286,5.6,11.5,77,0.00,CLR,,0.00,WeatherDisplay:10.37,2013-12-06 16:07:00,
2013-12-06 10:12:00,-6.5,-12.1,30.66,WNW,284,7.9,11.5,76,0.00,CLR,,0.00,WeatherDisplay:10.37,2013-12-06 16:12:00,
2013-12-06 10:17:00,-6.4,-12.0,30.66,WNW,300,6.1,9.2,76,0.00,CLR,,0.00,WeatherDisplay:10.37,2013-12-06 16:17:00,
2013-12-06 10:22:00,-6.0,-11.6,30.66,WNW,296,6.3,10.4,76,0.00,CLR,,0.00,WeatherDisplay:10.37,2013-12-06 16:22:00,
2013-12-06 10:27:00,-5.5,-10.9,30.66,WNW,288,7.0,9.2,77,0.00,CLR,,0.00,WeatherDisplay:10.37,2013-12-06 16:27:00,
2013-12-06 10:32:00,-5.7,-11.3,30.66,WNW,287,8.2,11.5,76,0.00,CLR,,0.00,WeatherDisplay:10.37,2013-12-06 16:32:00,
2013-12-06 10:37:00,-5.3,-10.9,30.66,WNW,288,7.6,10.4,76,0.00,CLR,,0.00,WeatherDisplay:10.37,2013-12-06 16:37:00,
2013-12-06 10:42:00,-5.2,-10.8,30.66,WNW,288,8.0,10.4,76,0.00,CLR,,0.00,WeatherDisplay:10.37,2013-12-06 16:42:00,
2013-12-06 10:48:00,-5.2,-10.8,30.66,WNW,295,6.9,10.4,76,0.00,CLR,,0.00,WeatherDisplay:10.37,2013-12-06 16:48:00,
2013-12-06 10:53:00,-4.6,-10.2,30.66,WNW,298,6.4,9.2,76,0.00,CLR,,0.00,WeatherDisplay:10.37,2013-12-06 16:53:00,
2013-12-06 10:58:00,-4.2,-9.9,30.66,WNW,294,6.5,8.1,76,0.00,CLR,,0.00,WeatherDisplay:10.37,2013-12-06 16:58:00,
2013-12-06 11:03:00,-4.0,-9.7,30.66,WNW,293,6.8,10.4,76,0.00,CLR,,0.00,WeatherDisplay:10.37,2013-12-06 17:03:00,
2013-12-06 11:08:00,-4.3,-10.0,30.66,WNW,283,5.7,8.1,76,0.00,CLR,,0.00,WeatherDisplay:10.37,2013-12-06 17:08:00,
2013-12-06 11:13:00,-4.0,-9.7,30.67,WNW,286,7.6,9.2,76,0.00,CLR,,0.00,WeatherDisplay:10.37,2013-12-06 17:13:00,
2013-12-06 11:18:00,-4.1,-10.0,30.66,WNW,295,6.7,8.1,75,0.00,CLR,,0.00,WeatherDisplay:10.37,2013-12-06 17:18:00,
2013-12-06 11:23:00,-3.9,-9.6,30.66,WNW,298,4.7,7.0,76,0.00,CLR,,0.00,WeatherDisplay:10.37,2013-12-06 17:23:00,
2013-12-06 11:28:00,-3.9,-9.8,30.66,WNW,298,5.5,8.1,75,0.00,CLR,,0.00,WeatherDisplay:10.37,2013-12-06 17:28:00,
2013-12-06 11:33:00,-3.6,-9.5,30.66,WNW,296,6.7,9.2,75,0.00,CLR,,0.00,WeatherDisplay:10.37,2013-12-06 17:33:00,
2013-12-06 11:38:00,-3.6,-9.5,30.66,WNW,297,4.1,8.0,75,0.00,CLR,,0.00,WeatherDisplay:10.37,2013-12-06 17:38:00,
2013-12-06 11:43:00,-3.5,-9.4,30.65,WNW,299,7.0,7.0,75,0.00,CLR,,0.00,WeatherDisplay:10.37,2013-12-06 17:43:00,
2013-12-06 11:48:00,-3.1,-9.1,30.65,WNW,299,7.3,10.4,75,0.00,CLR,,0.00,WeatherDisplay:10.37,2013-12-06 17:48:00,
2013-12-06 11:53:00,-3.2,-9.2,30.65,WNW,297,6.5,9.2,75,0.00,CLR,,0.00,WeatherDisplay:10.37,2013-12-06 17:53:00,
2013-12-06 11:58:00,-3.1,-9.1,30.65,WNW,296,6.4,8.1,75,0.00,CLR,,0.00,WeatherDisplay:10.37,2013-12-06 17:58:00,
2013-12-06 12:03:00,-2.9,-8.9,30.65,WNW,297,5.9,8.1,75,0.00,CLR,,0.00,WeatherDisplay:10.37,2013-12-06 18:03:00,
2013-12-06 12:08:00,-2.4,-8.4,30.65,WNW,296,6.9,9.0,75,0.00,CLR,,0.00,WeatherDisplay:10.37,2013-12-06 18:08:00,
2013-12-06 12:13:00,-2.3,-8.3,30.65,WNW,296,7.3,10.4,75,0.00,CLR,,0.00,WeatherDisplay:10.37,2013-12-06 18:13:00,
2013-12-06 12:18:00,-2.0,-7.7,30.65,WNW,293,5.5,9.2,76,0.00,CLR,,0.00,WeatherDisplay:10.37,2013-12-06 18:18:00,
2013-12-06 12:23:00,-1.8,-7.8,30.65,WNW,291,6.8,10.4,75,0.00,CLR,,0.00,WeatherDisplay:10.37,2013-12-06 18:23:00,
2013-12-06 12:28:00,-1.4,-7.1,30.65,WNW,298,8.0,10.4,76,0.00,CLR,,0.00,WeatherDisplay:10.37,2013-12-06 18:28:00,
2013-12-06 12:33:00,-1.5,-7.5,30.64,WNW,290,6.9,10.4,75,0.00,CLR,,0.00,WeatherDisplay:10.37,2013-12-06 18:33:00,
2013-12-06 12:38:00,-1.4,-7.4,30.64,WNW,291,6.0,8.1,75,0.00,CLR,,0.00,WeatherDisplay:10.37,2013-12-06 18:38:00,
2013-12-06 12:43:00,-1.2,-7.2,30.64,WNW,298,7.5,11.5,75,0.00,CLR,,0.00,WeatherDisplay:10.37,2013-12-06 18:43:00,
2013-12-06 12:48:00,-0.9,-6.9,30.64,WNW,291,6.7,8.1,75,0.00,CLR,,0.00,WeatherDisplay:10.37,2013-12-06 18:48:00,
2013-12-06 12:53:00,-1.1,-7.4,30.64,WNW,286,9.7,12.7,74,0.00,CLR,,0.00,WeatherDisplay:10.37,2013-12-06 18:53:00,
2013-12-06 12:58:00,-1.2,-7.5,30.64,WNW,285,9.0,11.5,74,0.00,CLR,,0.00,WeatherDisplay:10.37,2013-12-06 18:58:00,
2013-12-06 13:03:00,-1.6,-7.9,30.64,WNW,286,9.5,13.8,74,0.00,CLR,,0.00,WeatherDisplay:10.37,2013-12-06 19:03:00,
2013-12-06 13:08:00,-1.5,-7.5,30.64,WNW,298,9.2,11.5,75,0.00,CLR,,0.00,WeatherDisplay:10.37,2013-12-06 19:08:00,
2013-12-06 13:13:00,-1.3,-7.3,30.64,NW,304,8.5,11.5,75,0.00,CLR,,0.00,WeatherDisplay:10.37,2013-12-06 19:13:00,
2013-12-06 13:18:00,-1.3,-7.6,30.65,WNW,284,10.7,12.7,74,0.00,CLR,,0.00,WeatherDisplay:10.37,2013-12-06 19:18:00,
2013-12-06 13:23:00,-1.7,-8.0,30.64,West,276,9.7,11.5,74,0.00,CLR,,0.00,WeatherDisplay:10.37,2013-12-06 19:23:00,
2013-12-06 13:28:00,-1.7,-8.0,30.65,WNW,299,7.7,11.5,74,0.00,CLR,,0.00,WeatherDisplay:10.37,2013-12-06 19:28:00,
2013-12-06 13:33:00,-1.6,-7.9,30.65,WNW,286,8.0,11.5,74,0.00,CLR,,0.00,WeatherDisplay:10.37,2013-12-06 19:33:00,
2013-12-06 13:38:00,-1.5,-7.8,30.64,West,266,7.3,9.2,74,0.00,CLR,,0.00,WeatherDisplay:10.37,2013-12-06 19:38:00,
2013-12-06 13:43:00,-1.2,-7.5,30.64,West,275,9.7,12.7,74,0.00,CLR,,0.00,WeatherDisplay:10.37,2013-12-06 19:43:00,
2013-12-06 13:48:00,-1.0,-7.3,30.64,WNW,299,7.8,10.4,74,0.00,CLR,,0.00,WeatherDisplay:10.37,2013-12-06 19:48:00,
2013-12-06 13:53:00,-0.9,-7.5,30.65,NW,310,8.3,11.5,73,0.00,CLR,,0.00,WeatherDisplay:10.37,2013-12-06 19:53:00,
2013-12-06 13:58:00,-1.0,-7.6,30.65,WNW,303,7.8,11.5,73,0.00,CLR,,0.00,WeatherDisplay:10.37,2013-12-06 19:58:00,
2013-12-06 14:03:00,-0.8,-7.4,30.65,WNW,289,7.8,9.2,73,0.00,CLR,,0.00,WeatherDisplay:10.37,2013-12-06 20:03:00,
2013-12-06 14:08:00,-0.5,-7.1,30.65,WNW,296,9.2,11.5,73,0.00,CLR,,0.00,WeatherDisplay:10.37,2013-12-06 20:08:00,
2013-12-06 14:13:00,-0.4,-7.0,30.65,WNW,285,7.3,11.5,73,0.00,CLR,,0.00,WeatherDisplay:10.37,2013-12-06 20:13:00,
2013-12-06 14:18:00,-0.5,-7.1,30.65,WNW,283,8.5,12.7,73,0.00,CLR,,0.00,WeatherDisplay:10.37,2013-12-06 20:18:00,
2013-12-06 14:23:00,-0.9,-7.8,30.65,West,267,9.0,14.0,72,0.00,CLR,,0.00,WeatherDisplay:10.37,2013-12-06 20:23:00,
2013-12-06 14:28:00,-0.8,-7.4,30.65,West,276,9.6,12.7,73,0.00,CLR,,0.00,WeatherDisplay:10.37,2013-12-06 20:28:00,
2013-12-06 14:33:00,-1.0,-7.6,30.65,West,268,8.7,11.5,73,0.00,CLR,,0.00,WeatherDisplay:10.37,2013-12-06 20:33:00,
2013-12-06 14:38:00,-1.0,-7.6,30.65,West,270,8.0,11.5,73,0.00,CLR,,0.00,WeatherDisplay:10.37,2013-12-06 20:38:00,
2013-12-06 14:43:00,-1.0,-7.9,30.65,West,279,8.6,12.7,72,0.00,CLR,,0.00,WeatherDisplay:10.37,2013-12-06 20:43:00,
2013-12-06 14:48:00,-1.3,-8.1,30.66,WNW,288,9.1,10.4,72,0.00,CLR,,0.00,WeatherDisplay:10.37,2013-12-06 20:48:00,
2013-12-06 14:53:00,-1.1,-8.0,30.65,WNW,294,7.3,11.5,72,0.00,CLR,,0.00,WeatherDisplay:10.37,2013-12-06 20:53:00,
2013-12-06 14:58:00,-1.0,-7.9,30.66,WNW,298,8.5,10.4,72,0.00,CLR,,0.00,WeatherDisplay:10.37,2013-12-06 20:58:00,
2013-12-06 15:03:00,-0.9,-7.8,30.66,West,275,9.0,13.8,72,0.00,CLR,,0.00,WeatherDisplay:10.37,2013-12-06 21:03:00,
2013-12-06 15:08:00,-1.1,-8.0,30.67,WNW,284,8.7,11.5,72,0.00,CLR,,0.00,WeatherDisplay:10.37,2013-12-06 21:08:00,
2013-12-06 15:13:00,-1.2,-8.0,30.66,WNW,288,8.3,11.5,72,0.00,CLR,,0.00,WeatherDisplay:10.37,2013-12-06 21:13:00,
2013-12-06 15:18:00,-1.0,-7.9,30.66,WNW,296,8.2,11.5,72,0.00,CLR,,0.00,WeatherDisplay:10.37,2013-12-06 21:18:00,
2013-12-06 15:23:00,-1.2,-8.0,30.66,West,279,11.2,12.0,72,0.00,CLR,,0.00,WeatherDisplay:10.37,2013-12-06 21:23:00,
2013-12-06 15:28:00,-1.4,-8.2,30.66,West,276,10.2,12.7,72,0.00,CLR,,0.00,WeatherDisplay:10.37,2013-12-06 21:28:00,
2013-12-06 15:33:00,-1.5,-8.3,30.67,WNW,291,9.5,11.5,72,0.00,CLR,,0.00,WeatherDisplay:10.37,2013-12-06 21:33:00,
2013-12-06 15:38:00,-1.7,-8.5,30.66,WNW,300,10.3,11.5,72,0.00,CLR,,0.00,WeatherDisplay:10.37,2013-12-06 21:38:00,
2013-12-06 15:43:00,-1.8,-8.6,30.66,WNW,291,7.6,10.4,72,0.00,CLR,,0.00,WeatherDisplay:10.37,2013-12-06 21:43:00,
2013-12-06 15:48:00,-1.9,-8.7,30.67,WNW,292,9.6,11.5,72,0.00,CLR,,0.00,WeatherDisplay:10.37,2013-12-06 21:48:00,
2013-12-06 15:53:00,-2.3,-9.1,30.67,WNW,288,8.6,11.0,72,0.00,CLR,,0.00,WeatherDisplay:10.37,2013-12-06 21:53:00,
2013-12-06 15:58:00,-2.6,-9.4,30.67,WNW,293,7.5,11.5,72,0.00,CLR,,0.00,WeatherDisplay:10.37,2013-12-06 21:58:00,
2013-12-06 16:03:00,-2.9,-9.7,30.67,WNW,287,8.0,11.5,72,0.00,CLR,,0.00,WeatherDisplay:10.37,2013-12-06 22:03:00,
2013-12-06 16:08:00,-3.1,-9.6,30.67,WNW,292,5.4,6.9,73,0.00,CLR,,0.00,WeatherDisplay:10.37,2013-12-06 22:08:00,
2013-12-06 16:13:00,-3.2,-9.7,30.68,WNW,296,6.0,9.2,73,0.00,CLR,,0.00,WeatherDisplay:10.37,2013-12-06 22:13:00,
2013-12-06 16:18:00,-3.4,-9.9,30.67,WNW,287,4.9,6.9,73,0.00,CLR,,0.00,WeatherDisplay:10.37,2013-12-06 22:18:00,
2013-12-06 16:23:00,-3.6,-10.1,30.68,WNW,287,5.7,6.9,73,0.00,CLR,,0.00,WeatherDisplay:10.37,2013-12-06 22:23:00,
2013-12-06 16:28:00,-3.7,-9.9,30.68,WNW,284,4.4,9.2,74,0.00,CLR,,0.00,WeatherDisplay:10.37,2013-12-06 22:28:00,
2013-12-06 16:33:00,-3.8,-10.0,30.68,WNW,285,6.0,8.1,74,0.00,CLR,,0.00,WeatherDisplay:10.37,2013-12-06 22:33:00,
2013-12-06 16:38:00,-3.9,-10.1,30.68,WNW,286,6.2,10.4,74,0.00,CLR,,0.00,WeatherDisplay:10.37,2013-12-06 22:38:00,
2013-12-06 16:43:00,-4.1,-10.3,30.68,WNW,286,5.3,8.0,74,0.00,CLR,,0.00,WeatherDisplay:10.37,2013-12-06 22:43:00,
2013-12-06 16:48:00,-4.4,-10.6,30.69,WNW,286,6.3,8.0,74,0.00,CLR,,0.00,WeatherDisplay:10.37,2013-12-06 22:48:00,
2013-12-06 16:53:00,-4.6,-10.8,30.69,WNW,284,4.9,7.0,74,0.00,CLR,,0.00,WeatherDisplay:10.37,2013-12-06 22:53:00,
2013-12-06 16:58:00,-4.9,-11.1,30.69,WNW,286,5.0,6.9,74,0.00,CLR,,0.00,WeatherDisplay:10.37,2013-12-06 22:58:00,
2013-12-06 17:03:00,-5.2,-11.1,30.69,WNW,286,5.1,7.0,75,0.00,CLR,,0.00,WeatherDisplay:10.37,2013-12-06 23:03:00,
2013-12-06 17:08:00,-5.2,-11.1,30.69,West,281,7.1,10.4,75,0.00,CLR,,0.00,WeatherDisplay:10.37,2013-12-06 23:08:00,
2013-12-06 17:13:00,-5.4,-11.3,30.69,WNW,282,6.9,8.1,75,0.00,CLR,,0.00,WeatherDisplay:10.37,2013-12-06 23:13:00,
2013-12-06 17:18:00,-5.6,-11.5,30.69,WNW,284,6.6,8.1,75,0.00,CLR,,0.00,WeatherDisplay:10.37,2013-12-06 23:18:00,
2013-12-06 17:23:00,-5.8,-11.7,30.69,WNW,284,5.0,6.9,75,0.00,CLR,,0.00,WeatherDisplay:10.37,2013-12-06 23:23:00,
2013-12-06 17:28:00,-6.0,-11.9,30.69,WNW,283,4.7,6.9,75,0.00,CLR,,0.00,WeatherDisplay:10.37,2013-12-06 23:28:00,
2013-12-06 17:33:00,-6.2,-12.1,30.69,WNW,283,4.8,6.0,75,0.00,CLR,,0.00,WeatherDisplay:10.37,2013-12-06 23:33:00,
2013-12-06 17:38:00,-6.3,-11.9,30.70,WNW,284,4.7,5.8,76,0.00,CLR,,0.00,WeatherDisplay:10.37,2013-12-06 23:38:00,
2013-12-06 17:43:00,-6.3,-11.9,30.70,WNW,284,5.2,7.0,76,0.00,CLR,,0.00,WeatherDisplay:10.37,2013-12-06 23:43:00,
2013-12-06 17:48:00,-6.4,-12.0,30.70,WNW,283,4.2,4.6,76,0.00,CLR,,0.00,WeatherDisplay:10.37,2013-12-06 23:48:00,
2013-12-06 17:53:00,-6.6,-12.2,30.71,WNW,284,4.6,5.8,76,0.00,CLR,,0.00,WeatherDisplay:10.37,2013-12-06 23:53:00,
2013-12-06 17:58:00,-6.7,-12.3,30.70,WNW,283,4.4,5.0,76,0.00,CLR,,0.00,WeatherDisplay:10.37,2013-12-06 23:58:00,
2013-12-06 18:03:00,-6.9,-12.5,30.71,WNW,283,4.4,4.6,76,0.00,CLR,,0.00,WeatherDisplay:10.37,2013-12-07 00:03:00,
2013-12-06 18:08:00,-7.1,-12.7,30.71,WNW,284,4.4,5.8,76,0.00,CLR,,0.00,WeatherDisplay:10.37,2013-12-07 00:08:00,
2013-12-06 18:13:00,-7.2,-12.8,30.71,WNW,284,3.7,4.6,76,0.00,CLR,,0.00,WeatherDisplay:10.37,2013-12-07 00:13:00,
2013-12-06 18:18:00,-7.3,-12.9,30.71,WNW,284,3.2,4.6,76,0.00,CLR,,0.00,WeatherDisplay:10.37,2013-12-07 00:18:00,
2013-12-06 18:23:00,-7.3,-12.6,30.71,WNW,284,4.3,5.8,77,0.00,CLR,,0.00,WeatherDisplay:10.37,2013-12-07 00:23:00,
2013-12-06 18:28:00,-7.4,-12.7,30.71,WNW,284,3.8,4.6,77,0.00,CLR,,0.00,WeatherDisplay:10.37,2013-12-07 00:28:00,
2013-12-06 18:33:00,-7.2,-12.5,30.71,WNW,283,4.2,5.8,77,0.00,CLR,,0.00,WeatherDisplay:10.37,2013-12-07 00:33:00,
2013-12-06 18:38:00,-7.1,-12.4,30.71,WNW,283,3.3,5.0,77,0.00,CLR,,0.00,WeatherDisplay:10.37,2013-12-07 00:38:00,
2013-12-06 18:43:00,-7.1,-12.4,30.72,WNW,284,4.0,4.6,77,0.00,CLR,,0.00,WeatherDisplay:10.37,2013-12-07 00:43:00,
2013-12-06 18:49:00,-7.2,-12.5,30.72,WNW,284,5.0,8.1,77,0.00,CLR,,0.00,WeatherDisplay:10.37,2013-12-07 00:49:00,
2013-12-06 18:54:00,-7.1,-12.7,30.72,WNW,284,5.1,5.8,76,0.00,CLR,,0.00,WeatherDisplay:10.37,2013-12-07 00:54:00,
2013-12-06 18:59:00,-7.2,-12.8,30.72,WNW,283,6.3,8.1,76,0.00,CLR,,0.00,WeatherDisplay:10.37,2013-12-07 00:59:00,
2013-12-06 19:04:00,-7.3,-12.9,30.72,WNW,283,6.1,6.1,76,0.00,CLR,,0.00,WeatherDisplay:10.37,2013-12-07 01:04:00,
2013-12-06 19:09:00,-7.5,-13.1,30.73,WNW,283,4.6,5.8,76,0.00,CLR,,0.00,WeatherDisplay:10.37,2013-12-07 01:09:00,
2013-12-06 19:14:00,-7.7,-13.3,30.73,WNW,283,5.6,6.0,76,0.00,CLR,,0.00,WeatherDisplay:10.37,2013-12-07 01:14:00,
2013-12-06 19:19:00,-7.7,-13.3,30.73,West,275,7.1,9.2,76,0.00,CLR,,0.00,WeatherDisplay:10.37,2013-12-07 01:19:00,
2013-12-06 19:24:00,-7.9,-13.5,30.73,West,279,5.9,7.0,76,0.00,CLR,,0.00,WeatherDisplay:10.37,2013-12-07 01:24:00,
2013-12-06 19:29:00,-8.1,-13.6,30.73,WNW,283,4.2,5.8,76,0.00,CLR,,0.00,WeatherDisplay:10.37,2013-12-07 01:29:00,
2013-12-06 19:34:00,-8.3,-13.8,30.74,West,280,5.0,8.1,76,0.00,CLR,,0.00,WeatherDisplay:10.37,2013-12-07 01:34:00,
2013-12-06 19:39:00,-8.4,-13.7,30.74,West,279,4.8,6.9,77,0.00,CLR,,0.00,WeatherDisplay:10.37,2013-12-07 01:39:00,
2013-12-06 19:44:00,-8.5,-13.8,30.74,West,279,4.8,6.9,77,0.00,CLR,,0.00,WeatherDisplay:10.37,2013-12-07 01:44:00,
2013-12-06 19:49:00,-8.7,-14.0,30.74,West,279,5.7,6.9,77,0.00,CLR,,0.00,WeatherDisplay:10.37,2013-12-07 01:49:00,
2013-12-06 19:54:00,-8.7,-14.0,30.75,West,279,5.1,8.1,77,0.00,CLR,,0.00,WeatherDisplay:10.37,2013-12-07 01:54:00,
2013-12-06 19:59:00,-8.8,-14.1,30.75,West,279,3.6,5.0,77,0.00,CLR,,0.00,WeatherDisplay:10.37,2013-12-07 01:59:00,
2013-12-06 20:04:00,-8.9,-14.2,30.75,West,279,3.9,4.6,77,0.00,CLR,,0.00,WeatherDisplay:10.37,2013-12-07 02:04:00,
2013-12-06 20:09:00,-8.9,-14.2,30.75,West,279,3.7,5.8,77,0.00,CLR,,0.00,WeatherDisplay:10.37,2013-12-07 02:09:00,
2013-12-06 20:14:00,-9.0,-14.3,30.76,West,279,3.5,4.6,77,0.00,CLR,,0.00,WeatherDisplay:10.37,2013-12-07 02:14:00,
2013-12-06 20:19:00,-9.0,-14.3,30.76,West,279,4.1,4.6,77,0.00,CLR,,0.00,WeatherDisplay:10.37,2013-12-07 02:19:00,
2013-12-06 20:24:00,-9.0,-14.3,30.76,West,280,4.2,5.8,77,0.00,CLR,,0.00,WeatherDisplay:10.37,2013-12-07 02:24:00,
2013-12-06 20:29:00,-9.1,-14.4,30.76,West,280,4.2,5.8,77,0.00,CLR,,0.00,WeatherDisplay:10.37,2013-12-07 02:29:00,
2013-12-06 20:34:00,-9.2,-14.5,30.76,West,281,4.8,6.9,77,0.00,CLR,,0.00,WeatherDisplay:10.37,2013-12-07 02:34:00,
2013-12-06 20:39:00,-9.3,-14.6,30.77,West,281,4.8,5.8,77,0.00,CLR,,0.00,WeatherDisplay:10.37,2013-12-07 02:39:00,
2013-12-06 20:44:00,-9.4,-14.7,30.77,WNW,282,4.8,5.8,77,0.00,CLR,,0.00,WeatherDisplay:10.37,2013-12-07 02:44:00,
2013-12-06 20:49:00,-9.4,-14.7,30.77,WNW,283,4.3,6.9,77,0.00,CLR,,0.00,WeatherDisplay:10.37,2013-12-07 02:49:00,
2013-12-06 20:54:00,-9.4,-12.0,30.77,WNW,287,5.3,8.1,88,0.00,CLR,,0.00,WeatherDisplay:10.37,2013-12-07 02:54:00,
2013-12-06 20:59:00,-9.2,-14.5,30.77,WNW,287,5.2,8.1,77,0.00,CLR,,0.00,WeatherDisplay:10.37,2013-12-07 02:59:00,
2013-12-06 21:04:00,-9.0,-14.3,30.77,WNW,289,5.3,6.9,77,0.00,CLR,,0.00,WeatherDisplay:10.37,2013-12-07 03:04:00,
2013-12-06 21:09:00,-9.0,-14.3,30.77,WNW,290,5.0,8.1,77,0.00,CLR,,0.00,WeatherDisplay:10.37,2013-12-07 03:09:00,
2013-12-06 21:14:00,-9.0,-14.3,30.77,WNW,292,5.8,5.8,77,0.00,CLR,,0.00,WeatherDisplay:10.37,2013-12-07 03:14:00,
2013-12-06 21:19:00,-9.1,-14.4,30.77,WNW,293,3.7,4.6,77,0.00,CLR,,0.00,WeatherDisplay:10.37,2013-12-07 03:19:00,
2013-12-06 21:24:00,-9.2,-14.5,30.77,WNW,293,4.7,5.0,77,0.00,CLR,,0.00,WeatherDisplay:10.37,2013-12-07 03:24:00,
2013-12-06 21:29:00,-9.2,-14.5,30.77,WNW,293,3.5,4.6,77,0.00,CLR,,0.00,WeatherDisplay:10.37,2013-12-07 03:29:00,
2013-12-06 21:34:00,-9.3,-14.6,30.77,WNW,292,4.9,6.9,77,0.00,CLR,,0.00,WeatherDisplay:10.37,2013-12-07 03:34:00,
2013-12-06 21:39:00,-9.3,-14.6,30.77,WNW,293,4.2,5.8,77,0.00,CLR,,0.00,WeatherDisplay:10.37,2013-12-07 03:39:00,
2013-12-06 21:44:00,-9.5,-14.7,30.77,WNW,292,5.2,8.1,77,0.00,CLR,,0.00,WeatherDisplay:10.37,2013-12-07 03:44:00,
2013-12-06 21:49:00,-9.7,-14.9,30.77,WNW,292,4.6,7.0,77,0.00,CLR,,0.00,WeatherDisplay:10.37,2013-12-07 03:49:00,
2013-12-06 21:54:00,-9.8,-15.0,30.77,WNW,293,4.5,6.9,77,0.00,CLR,,0.00,WeatherDisplay:10.37,2013-12-07 03:54:00,
2013-12-06 21:59:00,-9.8,-15.0,30.78,WNW,293,4.0,6.9,77,0.00,CLR,,0.00,WeatherDisplay:10.37,2013-12-07 03:59:00,
2013-12-06 22:04:00,-9.9,-15.1,30.78,WNW,292,3.7,4.6,77,0.00,CLR,,0.00,WeatherDisplay:10.37,2013-12-07 04:04:00,
2013-12-06 22:09:00,-10.0,-15.2,30.78,WNW,292,4.1,5.0,77,0.00,CLR,,0.00,WeatherDisplay:10.37,2013-12-07 04:09:00,
2013-12-06 22:14:00,-10.1,-15.3,30.78,WNW,292,3.9,5.0,77,0.00,CLR,,0.00,WeatherDisplay:10.37,2013-12-07 04:14:00,
2013-12-06 22:19:00,-10.2,-15.4,30.78,WNW,292,3.4,3.5,77,0.00,CLR,,0.00,WeatherDisplay:10.37,2013-12-07 04:19:00,
2013-12-06 22:24:00,-10.3,-15.5,30.79,WNW,293,3.4,4.6,77,0.00,CLR,,0.00,WeatherDisplay:10.37,2013-12-07 04:24:00,
2013-12-06 22:29:00,-10.4,-15.6,30.79,WNW,293,2.5,3.5,77,0.00,CLR,,0.00,WeatherDisplay:10.37,2013-12-07 04:29:00,
2013-12-06 22:34:00,-10.6,-15.8,30.79,WNW,293,2.3,3.5,77,0.00,CLR,,0.00,WeatherDisplay:10.37,2013-12-07 04:34:00,
2013-12-06 22:39:00,-10.8,-16.0,30.79,WNW,292,1.2,2.3,77,0.00,CLR,,0.00,WeatherDisplay:10.37,2013-12-07 04:39:00,
2013-12-06 22:44:00,-11.1,-16.3,30.79,WNW,293,2.6,3.5,77,0.00,CLR,,0.00,WeatherDisplay:10.37,2013-12-07 04:44:00,
2013-12-06 22:49:00,-11.3,-16.5,30.79,WNW,293,3.6,3.6,77,0.00,CLR,,0.00,WeatherDisplay:10.37,2013-12-07 04:49:00,
2013-12-06 22:54:00,-11.5,-16.7,30.79,WNW,292,3.3,4.0,77,0.00,CLR,,0.00,WeatherDisplay:10.37,2013-12-07 04:54:00,
2013-12-06 22:59:00,-11.4,-16.6,30.79,WNW,293,3.6,4.0,77,0.00,CLR,,0.00,WeatherDisplay:10.37,2013-12-07 04:59:00,
2013-12-06 23:01:00,-11.4,-16.6,30.79,WNW,293,3.5,4.0,77,0.00,CLR,,0.00,WeatherDisplay:10.37,2013-12-07 05:01:00,
2013-12-06 23:06:00,-11.4,-16.6,30.79,WNW,292,3.1,3.5,77,0.00,CLR,,0.00,WeatherDisplay:10.37,2013-12-07 05:06:00,
2013-12-06 23:11:00,-11.4,-16.6,30.80,WNW,293,1.9,2.3,77,0.00,CLR,,0.00,WeatherDisplay:10.37,2013-12-07 05:11:00,
2013-12-06 23:16:00,-11.5,-16.7,30.80,WNW,293,3.4,4.6,77,0.00,CLR,,0.00,WeatherDisplay:10.37,2013-12-07 05:16:00,
2013-12-06 23:17:00,-11.5,-16.7,30.80,WNW,292,2.6,3.5,77,0.00,CLR,,0.00,WeatherDisplay:10.37,2013-12-07 05:17:00,
2013-12-06 23:22:00,-11.4,-16.6,30.80,WNW,293,2.0,3.5,77,0.00,CLR,,0.00,WeatherDisplay:10.37,2013-12-07 05:22:00,
2013-12-06 23:27:00,-11.4,-16.6,30.80,WNW,292,3.2,3.5,77,0.00,CLR,,0.00,WeatherDisplay:10.37,2013-12-07 05:27:00,
2013-12-06 23:32:00,-11.2,-16.1,30.80,WNW,292,3.9,4.0,78,0.00,CLR,,0.00,WeatherDisplay:10.37,2013-12-07 05:32:00,
2013-12-06 23:37:00,-11.2,-16.1,30.81,WNW,292,4.0,4.0,78,0.00,CLR,,0.00,WeatherDisplay:10.37,2013-12-07 05:37:00,
2013-12-06 23:42:00,-10.7,-15.7,30.80,WNW,293,2.6,3.5,78,0.00,CLR,,0.00,WeatherDisplay:10.37,2013-12-07 05:42:00,
2013-12-06 23:47:00,-10.8,-16.0,30.80,WNW,292,2.1,3.5,77,0.00,CLR,,0.00,WeatherDisplay:10.37,2013-12-07 05:47:00,
2013-12-06 23:52:00,-10.8,-15.8,30.81,WNW,293,2.7,3.5,78,0.00,CLR,,0.00,WeatherDisplay:10.37,2013-12-07 05:52:00,
2013-12-06 23:57:00,-10.9,-16.1,30.81,WNW,293,0.8,1.2,77,0.00,CLR,,0.00,WeatherDisplay:10.37,2013-12-07 05:57:00,